Home > Weather > Salem > Past weeks

Flag for USA Past Weather in Salem, Oregon, USA — Yesterday and Last 2 Weeks

Now
83 °F

Sunny.


Feels Like: 81 °F
Forecast: 60 / 83 °F
Wind: 9 mph from West

Location: McNary Field

Current Time: Aug 26, 2016 at 9:55:26 PM

Latest Report: Aug 26, 2016 at 8:56 PM


Visibility: 10 mi

Pressure: 29.81 "Hg

Humidity: 26%

Dew Point: 44 °F

Location of SalemLocation

Past Weather in Salem — Graph

°F

Salem Temperature Yesterday

Maximum temperature yesterday: 97 °F (at 2:56 PM)
Minimum temperature yesterday: 64 °F (at 1:56 AM)
Average temperature yesterday: 79 °F

High & Low Weather Summary for the Past Weeks

 TemperatureHumidityPressure
High103 °F (Aug 19, 2:56 PM)87% (Aug 12, 4:56 AM)30.16 "Hg (Aug 12, 4:56 AM)
Low51 °F (Aug 23, 6:56 AM)11% (Aug 26, 3:56 PM)29.77 "Hg (Aug 20, 7:56 PM)
Average75 °F47%29.97 "Hg
* Reported Aug 11 7:56 PM — Aug 26 7:56 PM, Salem, Weather by CustomWeather, © 2016

Note: Actual official high and low records may vary slightly from our data, if they occured in-between our weather recording intervals... More about our weather records

Advertising

Salem Weather History for the Previous 24 Hours

Scroll right to see more
 ConditionsComfort  
Time TempWeatherWind HumidityBarometerVisibility
7:56 PM
Fri, Aug 26
88 °FSunny.7 mph22%29.78 "Hg10 mi
6:56 PM94 °FSunny.5 mph14%29.78 "Hg10 mi
5:56 PM95 °FSunny.7 mph13%29.78 "Hg10 mi
4:56 PM97 °FSunny.7 mph12%29.79 "Hg10 mi
3:56 PM97 °FSunny.6 mph11%29.80 "Hg10 mi
2:56 PM97 °FSunny.8 mph13%29.82 "Hg10 mi
1:56 PM95 °FSunny.8 mph15%29.84 "Hg10 mi
12:56 PM91 °FSunny.9 mph20%29.85 "Hg10 mi
11:56 AM88 °FSunny.7 mph25%29.86 "Hg10 mi
10:56 AM83 °FSunny.7 mph31%29.87 "Hg10 mi
9:56 AM77 °FSunny.10 mph35%29.89 "Hg10 mi
8:56 AM73 °FSunny.5 mph40%29.90 "Hg10 mi
7:56 AM70 °FSunny.No wind42%29.89 "Hg10 mi
6:56 AM60 °FClear.No wind62%29.89 "Hg10 mi
5:56 AM63 °FClear.3 mph58%29.88 "Hg10 mi
4:56 AM66 °FClear.5 mph52%29.87 "Hg10 mi
3:56 AM65 °FClear.No wind56%29.88 "Hg10 mi
2:56 AM64 °FClear.No wind56%29.88 "Hg10 mi
1:56 AM66 °FClear.No wind56%29.88 "Hg10 mi
12:56 AM66 °FClear.No wind59%29.89 "Hg10 mi
11:56 PM
Thu, Aug 25
70 °FClear.No wind46%29.89 "Hg10 mi
10:56 PM77 °FClear.7 mph36%29.89 "Hg10 mi
9:56 PM76 °FClear.3 mph37%29.89 "Hg10 mi
Weather by CustomWeather, © 2016

See weather overviewHow to use our weather pages